Location: Diekholzen
(52.0960°N, 9.9178°E)
Time: 22:22:03
(UTC+00:00)

Daily predictions for brighter satellites

Satellite Brightness Start Highest point End
(mag) Time Altitude Azimuth Time Altitude Azimuth Time Altitude Azimuth
Cosmos 1626 Rocket 3.9 15:39:56 10° N 15:44:04 41° ENE 15:48:08 10° SE
Cosmos 2084 3.4 15:40:41 10° SW 15:44:54 84° NW 15:49:04 10° NE
IGS 5A 3.7 15:41:48 10° SE 15:45:33 43° ENE 15:49:21 10° N
Cosmos 2227 Rocket 3.0 15:41:17 10° NNW 15:46:13 30° NE 15:51:08 10° ESE
Cosmos 1892 Rocket 4.0 15:43:58 10° NNW 15:48:24 68° W 15:52:48 10° S
NOSS 2-2 (D) 4.1 15:48:18 10° S 15:51:07 25° SE 15:53:41 10° ENE
Cosmos 2369 Rocket 3.1 15:46:13 10° WSW 15:51:37 45° NW 15:57:04 10° NNE
Cosmos 2084 Rocket 3.7 15:47:57 10° NW 15:52:01 45° NNE 15:56:04 10° ESE
Cosmos 1943 Rocket 4.2 15:49:18 10° WNW 15:52:21 15° NNW 15:55:24 10° N
Cosmos 724 4.4 15:47:28 10° NW 15:53:33 64° NE 15:59:27 10° SE
Thor Agena Rocket 3.7 15:49:26 10° SE 15:54:28 52° ENE 15:59:29 10° N
BlueWalker 3 3.0 15:52:05 10° WNW 15:55:33 44° SSW 15:59:02 10° SE
Cosmos 1356 Rocket 3.3 15:55:06 10° S 15:59:08 71° E 16:03:13 10° NNE
Meteor 1-28 Rocket 3.6 15:56:03 10° NNE 15:59:11 35° E 16:02:17 10° SSE
Cosmos 2026 Rocket 4.3 15:54:12 10° NNW 16:00:25 73° W 16:06:42 10° S
Cosmos 2278 Rocket 4.3 15:58:52 10° NW 16:01:59 15° NNW 16:05:06 10° NNE
Cosmos 1544 Rocket 4.1 16:00:01 10° SSE 16:04:07 40° E 16:08:16 10° NNE
Cosmos 1484 Rocket 2.5 16:01:16 10° SSE 16:04:47 86° ENE 16:08:19 10° NNW
Cosmos 1697 Rocket 4.1 16:01:57 10° SE 16:05:35 18° E 16:09:00 11° ENE
IRS-1C 4.4 16:00:39 10° SE 16:05:39 44° ENE 16:10:41 10° N
NOSS 2-2 (E) 3.9 16:02:52 10° S 16:05:46 27° SE 16:08:05 12° ENE
Intercosmos 24 3.7 16:04:18 10° N 16:08:23 69° ENE 16:11:54 10° SSE
Cosmos 405 Rocket 2.2 16:05:16 10° NNW 16:08:32 85° ENE 16:11:47 10° SSE
Cosmos 1634 Rocket 4.0 16:04:03 10° S 16:10:13 79° E 16:16:25 10° NNE
Okean 1-7 Rocket 4.3 16:06:46 10° N 16:10:42 31° ENE 16:14:36 10° SE
Lacrosse 5 rocket 1.1 16:09:29 10° WSW 16:13:14 77° NNW 16:16:22 14° ENE
Cosmos 1461 4.3 16:15:16 10° SSE 16:18:08 20° ESE 16:20:09 14° ENE
CENTAUR R/B 2.8 16:12:17 10° SW 16:18:08 72° NW 16:25:22 11° NE
Meteor 1-20 Rocket 4.3 16:14:25 10° N 16:19:47 52° ENE 16:25:06 10° SSE
Cosmos 1455 Rocket 4.1 16:18:20 10° SSW 16:22:31 46° WNW 16:26:45 10° N
Cosmos 1602 Rocket 3.6 16:18:11 10° N 16:22:31 53° ENE 16:26:47 10° SSE
Cosmos 2279 Rocket 4.0 16:18:39 10° S 16:24:49 72° E 16:31:03 10° NNE
IRIDIUM 103 4.4 16:22:34 10° N 16:27:43 53° E 16:32:48 10° SSE
SMAP 3.0 16:26:24 10° SSE 16:31:03 80° ENE 16:35:45 10° NNW
ERS-1 4.5 16:26:50 10° SE 16:31:43 56° ENE 16:36:35 10° N
UNK 3.8 16:27:32 10° NNE 16:32:05 56° E 16:36:33 10° S
Cosmos 1656 3.7 16:26:58 10° SSW 16:32:32 68° ESE 16:37:56 11° NE
YAOGAN 1 3.6 16:31:37 10° ESE 16:35:02 24° ENE 16:38:27 10° N
Cosmos 1867 3.5 16:30:16 10° NW 16:35:45 72° NE 16:41:12 10° SE
Cosmos 2228 3.5 16:31:53 10° SSW 16:36:04 61° WNW 16:40:18 10° N
NOSS 2-2 (C) 2.9 16:33:05 10° WSW 16:36:11 60° NW 16:38:05 20° NE
Landsat 7 3.7 16:31:55 10° SSE 16:36:33 71° ENE 16:41:13 10° N
SAR-Lupe-4 3.5 16:33:18 10° SSE 16:36:49 64° ENE 16:40:22 10° N
Cosmos 1486 Rocket 4.1 16:32:29 10° S 16:37:36 60° ESE 16:42:24 12° NNE
NOSS 7 (H) 4.0 16:35:45 10° NW 16:38:39 61° NE 16:41:17 13° ESE
Cosmos 2297 Rocket 2.4 16:33:54 10° NNW 16:39:36 78° WSW 16:45:15 10° SSE
USA 290 2.4 16:36:25 10° NNW 16:39:41 75° WSW 16:42:55 10° SSE
USA 215 3.5 16:35:28 16° ENE 16:40:46 59° N 16:47:11 10° WNW
Cosmos 2180 Rocket 4.4 16:36:16 10° S 16:42:21 69° E 16:48:29 10° NNE
Cosmos 1953 Rocket 4.3 16:41:21 10° N 16:45:18 31° ENE 16:49:16 10° SE
Resurs 01 Rocket 3.7 16:47:37 11° NNE 16:47:37 11° NNE 16:47:59 10° NNE
SAR-Lupe-1 3.9 16:42:18 10° SSE 16:45:52 71° ENE 16:49:30 10° N
IRIDIUM 106 4.2 16:40:51 10° N 16:46:05 74° E 16:51:18 10° S
Cosmos 1782 2.6 16:42:51 10° SSW 16:46:27 79° W 16:50:04 10° N
ATLAS CENTAUR R/B 2.7 16:43:45 10° WNW 16:46:41 31° WSW 16:49:31 10° S
CZ-4C R/B 3.0 16:40:57 10° NW 16:47:41 87° SW 16:56:12 10° SE
Cosmos 1607 4.3 16:42:44 10° NW 16:48:56 71° SW 16:55:11 10° SSE
Cosmos 1733 4.2 16:47:58 10° NW 16:49:12 18° W 16:50:25 10° SW
CZ-2D R/B 2.6 16:49:16 10° SSE 16:52:23 89° WSW 16:55:34 10° NNW
Meteor 1-25 Rocket 4.2 16:49:18 10° N 16:55:09 75° ENE 17:00:56 10° SSE
IRS-P3 4.0 16:50:05 10° SSE 16:55:23 75° ENE 17:00:43 10° NNW
Lacrosse 4 Rocket 3.0 16:52:41 10° W 16:56:10 27° NW 16:59:05 13° NNE
Cosmos 1825 Rocket 3.5 16:51:58 10° N 16:56:18 59° ENE 17:00:34 10° SSE
Cosmos 2219 3.8 16:51:03 10° NNW 16:56:22 37° NE 16:59:37 21° E
ARIANE 5 R/B 2.6 16:52:05 10° SSE 16:57:09 79° WSW 17:02:19 10° NNW
Cosmos 2266 Rocket 3.9 16:52:25 10° N 16:58:39 89° E 17:04:44 10° S
Meteor 1-5 Rocket 4.1 16:57:24 10° N 17:02:40 58° ENE 17:08:00 10° SSE
Cosmos 2098 Rocket 3.4 16:58:47 10° SSW 17:02:54 70° WNW 17:07:48 10° N
Cosmos 2151 3.4 16:59:46 10° NNW 17:03:54 64° W 17:08:00 10° S
Cosmos 1743 3.7 17:01:28 10° NNW 17:04:33 40° W 17:07:37 10° SSW
SPOT 1/Viking Rocket 3.5 17:01:56 10° SSE 17:07:06 66° ENE 17:12:16 10° N
Cosmos 1980 Rocket 3.2 17:03:22 10° SSE 17:07:51 25° ESE 17:08:01 25° E
Cosmos 1844 Rocket 3.9 17:06:24 10° NNW 17:10:44 22° NE 17:10:59 22° NE
SL-16 R/B 3.4 17:08:44 10° N 17:14:42 48° WNW 17:20:37 10° SW
Cosmos 2263 Rocket 2.1 17:12:23 10° NNW 17:18:02 63° NE 17:23:09 13° SE
NOSS 3-2 (C) 3.1 17:15:05 10° SSW 17:20:11 72° SE 17:23:02 32° NE
NOSS 3-2 (A) 3.5 17:15:11 10° WSW 17:20:23 63° NW 17:24:05 25° NE
GEOS 3 Rocket 3.8 17:19:36 25° NE 17:22:47 72° NW 17:28:08 10° SW
CZ-4 R/B 4.2 17:20:01 10° SSE 17:23:57 87° WSW 17:27:57 10° NNW
MOS 1 Rocket 3.9 17:19:36 10° S 17:24:28 65° W 17:29:38 10° NNW
Cosmos 1076 Rocket 3.3 17:21:21 10° N 17:25:40 75° ENE 17:29:58 10° SSE
BREEZE M DEB (TANK) 3.8 17:24:16 10° SW 17:25:20 20° SSW 17:25:20 20° SSW
Cosmos 1933 3.2 17:25:11 10° SSW 17:29:01 79° W 17:30:45 31° N
Cosmos 2227 Rocket 2.4 17:25:08 10° NW 17:30:46 71° WSW 17:36:23 10° SSE
Cosmos 1538 Rocket 3.9 17:26:27 10° NNW 17:31:45 72° ENE 17:36:28 13° SSE
Cosmos 1606 Rocket 3.5 17:28:06 10° SSW 17:32:30 84° W 17:35:24 22° N
PSLV R/B 3.2 17:36:04 49° SE 17:37:03 73° ENE 17:41:06 10° N
Cosmos 2369 Rocket 4.4 17:33:41 10° WNW 17:37:10 16° NNW 17:40:31 10° NNE
CZ-2D R/B 3.5 17:33:38 10° SSE 17:37:50 82° WSW 17:42:01 10° NNW
COSMO-SKYMED 1 3.3 17:39:14 36° SSE 17:39:14 36° SSE 17:41:57 10° S
Cosmos 1943 Rocket 4.3 17:37:31 10° N 17:38:42 11° N 17:39:20 10° NNE
NOSS 2-2 (D) 4.1 17:37:19 10° W 17:40:03 32° NW 17:40:03 32° NW
Cosmos 1244 Rocket 4.4 17:34:38 10° N 17:40:54 62° ENE 17:47:03 10° SSE
SL-19 R/B 4.1 17:36:08 10° SSE 17:41:31 82° ENE 17:47:14 10° NNW
Resurs 1-3 3.4 17:37:33 10° SSE 17:41:52 88° ENE 17:46:12 10° NNW
Cosmos 1503 Rocket 4.3 17:38:03 10° SW 17:43:16 66° WNW 17:46:10 26° NNE
BREEZE-M DEB (TANK) 4.1 17:40:16 10° W 17:43:53 64° S 17:48:33 28° ESE
Meteor 2-20 4.3 17:42:03 10° S 17:48:12 78° E 17:54:10 11° NNE
Cosmos 2278 Rocket 4.4 17:46:58 10° NNW 17:48:43 11° N 17:49:06 11° N
Cosmos 1697 Rocket 2.6 17:43:07 10° SSW 17:48:45 89° ESE 17:50:45 42° NNE
Lacrosse 5 rocket 2.2 17:47:07 10° WNW 17:49:58 34° NNW 17:49:58 34° NNW
Cosmos 1354 Rocket 4.1 17:46:13 10° SSW 17:51:30 77° WNW 17:53:34 38° NNE
BREEZE-M DEB (TANK) 4.1 17:49:16 10° W 17:53:02 90° S 17:57:03 37° E
Cosmos 1461 3.0 17:50:38 10° SW 17:54:18 63° WNW 17:54:18 63° WNW
Spot 4 Rocket 4.2 17:50:34 10° S 17:55:39 69° WSW 18:00:47 10° NNW
IRAS Rocket 4.2 17:51:19 10° SSE 17:56:48 80° WSW 18:02:19 10° NNW
Cosmos 1726 Rocket 4.0 17:53:12 10° SSW 17:57:49 65° WNW 17:59:49 33° N
SL-08 R/B 4.4 17:52:53 10° N 17:59:13 70° ENE 18:05:31 10° SSE
Cosmos 1655 Rocket 4.4 17:53:43 10° NNW 17:59:53 63° W 18:06:00 10° S
SKYMED 2 3.8 17:59:36 53° NNW 18:00:27 68° WNW 18:04:45 10° SSW
Gbstr 26 Del rocket 4.1 18:00:14 10° SW 18:02:39 31° SSW 18:02:39 31° SSW
Meteor 2-10 4.2 18:01:56 10° NNW 18:07:15 72° W 18:12:43 10° S
CENTAUR R/B 3.7 18:03:54 10° W 18:09:58 38° NNW 18:12:27 30° NNE
Meteor 2-20 Rocket 4.3 18:04:05 10° S 18:10:20 82° E 18:12:30 43° NNE
YAOGAN 1 3.4 18:06:31 10° S 18:10:38 48° W 18:14:47 10° NNW
Cosmos 923 Rocket 4.5 18:08:47 10° NNW 18:12:38 49° N 18:12:38 49° N
USA 281 4.0 18:17:15 34° NNE 18:17:15 34° NNE 18:21:46 10° NNW
Cosmos 2082 3.6 18:11:05 10° NNW 18:16:51 89° ENE 18:17:04 84° SE
Meteor 1-26 Rocket 4.4 18:13:54 10° S 18:18:03 54° S 18:18:03 54° S
USA 238 DEB 3.5 18:14:16 10° SSW 18:19:57 63° SSE 18:19:57 63° SSE
USA 238 3.5 18:14:23 10° SSW 18:20:02 63° SSE 18:20:02 63° SSE
Resurs 01 Rocket 4.1 18:25:00 13° NNW 18:25:00 13° NNW 18:25:33 10° NNW
USA 215 3.1 18:22:49 70° ENE 18:23:31 77° NNE 18:30:04 10° WNW
Cosmos 2219 3.8 18:35:10 10° NW 18:40:45 54° WSW 18:41:35 50° SW
Cosmos 1980 Rocket 2.9 18:45:42 10° SW 18:49:48 48° WSW 18:49:48 48° WSW
Cosmos 1844 Rocket 4.1 18:49:54 10° NNW 18:52:37 29° NNW 18:52:37 29° NNW
Cosmos 2263 Rocket 4.0 18:56:50 10° NW 19:01:34 28° WSW 19:04:58 16° SSW
NOSS 3-2 (C) 4.5 19:06:17 10° W 19:10:27 37° NW 19:10:27 37° NW
CENTAUR R/B 4.3 19:55:43 10° NW 19:59:34 29° NNW 19:59:34 29° NNW
